Location: Ellerstadt
(49.4644°N, 8.2615°E)
Time: 06:28:54
(UTC+00:00)

IRIDIUM 100 - Pass Details

Date: 03 October 2021
Orbit: 776 x 779 km, 86.4° (Epoch: 15 October)

Event Time Altitude Azimuth Distance (km) Brightness Sun altitude
Exits shadow 01:23:21 13° 345° (NNW) 2,119 ? -37.1°
Drops below altitude 10° 01:24:00 10° 349° (N) 2,340 ? -37.1°
Sets 01:26:34 0° 358° (N) 3,272 ? -36.8°
